Location: Montreal
(45.5087°N, 73.5540°W)
Time: 15:30:52
(UTC-04:00)

Envisat - Pass Details

Date: 06 February 2023
Orbit: 763 x 765 km, 98.2° (Epoch: 01 April)

Event Time Altitude Azimuth Distance (km) Brightness Sun altitude
Rises 05:30:39 0° 360° (N) 3,244 6.2 -17.6°
Reaches altitude 10° 05:33:35 10° 343° (NNW) 2,313 5.3 -17.1°
Enters shadow 05:35:35 17° 321° (NW) 1,888 4.6 -16.7°
